Blue Canyon, CA

8:48 AM PST on November 12, 2019 (GMT -0800)
Blue Canyon-Nyack

Weather History for KBLU - October, 2019

Change the Weather History Date:

Sunday, October 13, 2019

  Actual Average Record
Temperature  
Mean Temperature 54 °F -  
Max Temperature 60 °F 61 °F 82 °F (1978)
Min Temperature 50 °F 44 °F 29 °F (1981)
Degree Days  
Heating Degree Days 10    
Growing Degree Days 4 (Base 50)    
Moisture  
Dew Point 18 °F    
Average Humidity 25    
Maximum Humidity 36    
Minimum Humidity 15    
Precipitation  
Precipitation 0.00 in - - ()
Sea Level Pressure  
Sea Level Pressure 29.88 in    
Wind  
Wind Speed 4 mph ()    
Max Wind Speed 8 mph    
Max Gust Speed -    
Visibility 8.8 miles    
Events      
Averages and records for this station are not official NWS values.
T = Trace of Precipitation, MM = Missing Value Source: Averaged Metar Reports

Daily Weather History Graph

Daily Weather History Graph

Search for Another Location

Airport or City:

Astronomy

Oct. 13, 2019 Rise Set
Actual Time 7:10 AM PDT 6:27 PM PDT
Civil Twilight 6:43 AM PDT 6:53 PM PDT
Nautical Twilight 6:12 AM PDT 7:24 PM PDT
Astronomical Twilight 5:41 AM PDT 7:55 PM PDT
Moon 6:51 PM PDT (10/13) 6:50 AM PDT (10/13)
Length of Visible Light 12h 10m
Length of Day
11h 16m
Full, 100% of the Moon is Illuminated
Oct 13
Full
Oct 13
Full
Oct 21
Last Quarter
Oct 27
New
Nov 4
First Quarter

Hourly Weather History & Observations

Time (PDT) Temp. Dew Point Humidity Pressure Visibility Wind Dir Wind Speed Gust Speed Precip Events Conditions
12:52 AM 50.0 °F 18.0 °F 28% 29.86 in 10.0 mi ESE 3.5 mph - N/A   Clear
1:52 AM 50.0 °F 12.9 °F 23% 29.86 in 10.0 mi ESE 4.6 mph - N/A   Clear
2:52 AM 50.0 °F 5.0 °F 16% 29.85 in 10.0 mi ESE 3.5 mph - N/A   Clear
3:52 AM 50.0 °F 3.9 °F 15% 29.84 in 10.0 mi ESE 3.5 mph - N/A   Clear
4:52 AM 51.1 °F 7.0 °F 17% 29.84 in 10.0 mi ESE 3.5 mph - N/A   Clear
5:52 AM 50.0 °F 9.0 °F 19% 29.86 in 10.0 mi Calm Calm - N/A   Clear
6:52 AM 51.1 °F 10.0 °F 19% 29.87 in 10.0 mi ESE 3.5 mph - N/A   Clear
7:52 AM 51.1 °F 12.9 °F 22% 29.88 in 10.0 mi Calm Calm - N/A   Clear
8:52 AM 52.0 °F 17.1 °F 25% 29.88 in 10.0 mi Calm Calm - N/A   Clear
9:52 AM 53.1 °F 18.0 °F 25% 29.87 in 10.0 mi Calm Calm - N/A   Clear
10:52 AM 55.9 °F 15.1 °F 20% 29.86 in 10.0 mi South 5.8 mph - N/A   Clear
11:52 AM 55.9 °F 21.9 °F 27% 29.87 in 10.0 mi Variable 6.9 mph - N/A   Clear
12:52 PM 59.0 °F 21.0 °F 23% 29.84 in 10.0 mi South 8.1 mph - N/A   Clear
1:52 PM 59.0 °F 23.0 °F 25% 29.83 in 10.0 mi Variable 5.8 mph - N/A   Clear
2:16 PM 59.0 °F 21.9 °F 24% 29.99 in 1.5 mi South 6.9 mph - N/A   Haze
2:22 PM 59.0 °F 21.9 °F 24% 29.99 in 1.0 mi Variable 6.9 mph - N/A   Haze
2:26 PM 59.0 °F 21.9 °F 24% 29.99 in 2.5 mi South 8.1 mph - N/A   Haze
2:33 PM 57.9 °F 21.0 °F 24% 29.99 in 9.0 mi SW 6.9 mph - N/A   Partly Cloudy
2:52 PM 59.0 °F 23.0 °F 25% 29.83 in 10.0 mi WSW 5.8 mph - N/A   Clear
3:52 PM 59.0 °F 19.9 °F 22% 29.83 in 10.0 mi SW 8.1 mph - N/A   Clear
4:52 PM 57.9 °F 21.9 °F 25% 29.83 in 2.5 mi WSW 6.9 mph - N/A   Haze
5:03 PM 57.9 °F 21.0 °F 24% 30.00 in 10.0 mi SW 4.6 mph - N/A   Clear
5:52 PM 55.0 °F 23.0 °F 29% 29.86 in 10.0 mi WSW 3.5 mph - N/A   Clear
6:52 PM 53.1 °F 23.0 °F 31% 29.87 in 10.0 mi West 3.5 mph - N/A   Clear
7:52 PM 51.1 °F 24.1 °F 35% 29.88 in 10.0 mi Calm Calm - N/A   Clear
8:52 PM 51.1 °F 24.1 °F 35% 29.88 in 10.0 mi NE 3.5 mph - N/A   Clear
9:52 PM 50.0 °F 24.1 °F 36% 29.88 in 10.0 mi ENE 3.5 mph - N/A   Clear
10:52 PM 50.0 °F 19.0 °F 29% 29.88 in 10.0 mi Calm Calm - N/A   Clear